Dewpoint
32 33 35 38 38 39 34 30 16 34 23 -4 16 6 11 6 7 11 14 17 12 12 9 7 9 10 10 8 6 4 10 8 1 4 5 8 1 -2 -1 -2 6 10 5 -7
31 31 33 37 38 38 34 30 25 22 15 -14 0 2 10 4 8 10 12 13 9 8 8 7 9 8 6 6 5 10 10 0 -4 -5 1 -7 -3 -4 -2 -0 1 -3 3 -11
31 30 31 34 37 35 32 17 -8 6 13 11 4 5 -7 -3 6 9 10 11 6 5 4 9 5 5 7 7 6 6 3 -4 -4 -9 -9 -3 -7 -6 -5 -3 -0 -6 -6 -6
29 28 28 31 35 34 28 19 11 12 -12 6 -3 4 -0 -2 -1 5 8 -1 6 5 2 3 3 5 3 4 6 -5 4 -4 -3 -1 -0 -6 -4 -4 -5 -7 -4 -6 -5 -6
28 28 26 29 31 34 26 19 15 9 10 3 -11 -3 -6 -1 1 4 0 2 5 5 5 6 2 4 1 2 3 -12 -0 -0 0 -3 1 1 -8 -4 -5 -6 -5 -4 -4 -5
27 27 26 25 30 29 25 26 14 -3 1 -4 -14 -6 -4 -2 3 -0 4 5 4 0 5 7 7 8 5 6 2 -12 -9 -1 -0 -2 1 -2 -13 -5 -4 -5 -3 -4 -9 -4
26 26 25 24 27 28 25 25 12 -11 -20 -4 -4 -5 -4 -1 -0 3 4 3 4 -2 5 7 4 4 5 2 1 -7 -11 -4 0 -3 -1 -15 -2 3 2 -2 -2 -1 -1 -0
25 25 24 23 23 24 21 21 10 -12 -19 -12 -13 -10 -3 -6 -6 0 4 4 4 3 5 -4 -19 -18 -16 -15 -8 -7 -10 -5 -3 -10 -10 -5 -10 -8 -3 -4 -5 -3 -4 -3
29 25 24 22 22 23 17 16 13 -5 -11 -10 -3 -5 -7 -10 -10 -11 -4 3 3 3 -5 -10 -15 -14 -12 -10 -8 -6 -7 -14 -10 -21 -23 -26 -10 -8 -6 -1 -14 -2 -1 -2
30 29 23 23 20 20 13 13 12 -3 -7 -6 -3 -8 -8 -4 -6 -6 -4 -1 -7 2 -7 -10 -11 -9 -12 -7 -6 -7 -8 -12 -16 -17 -22 -16 -8 -10 -6 -22 -23 -10 -3 -3
30 29 25 22 21 16 10 11 12 -1 -6 -5 -2 -3 -3 -5 -6 -8 -5 -8 -8 -2 -7 -8 -10 -7 -7 -6 -6 -5 -8 -10 -10 -12 -13 -12 -8 -3 -5 -4 -10 -8 -7 -5
30 29 27 22 20 19 12 5 13 7 -3 -4 -0 -2 -2 -0 -0 -3 1 -5 -0 -1 -5 -5 -6 -4 -4 -7 -8 -3 -4 -2 -5 -3 -3 -6 -9 1 3 2 2 2 0 -1
29 27 28 24 19 19 11 8 13 9 1 0 -0 -1 1 8 4 2 -3 -2 -0 -1 -1 -2 -5 -4 -5 -3 -2 -5 -2 -7 -3 -3 -6 -2 2 -0 -2 4 4 5 5 5
28 27 28 24 19 17 15 10 14 16 6 -5 -3 7 2 7 8 7 7 8 6 5 3 -5 -6 -4 -2 -1 -1 -0 2 -2 0 -2 -2 3 -3 3 6 6 6 7 8 7
28 26 29 26 21 20 17 17 16 14 10 -6 -3 3 2 3 6 6 9 7 6 6 -3 -3 -3 -3 -0 -2 1 0 5 2 -0 -2 4 4 3 7 9 6 7 7 7 6
27 26 24 21 21 26 18 4 14 17 14 4 -6 4 2 2 3 4 5 9 9 5 3 -1 -4 -8 1 -3 -4 2 5 6 6 5 8 7 6 5 6 5 6 7 7 7
27 24 27 23 18 13 3 2 13 20 14 8 3 3 5 3 3 5 5 7 6 6 2 3 3 2 4 -0 -2 3 6 7 7 7 7 1 4 4 4 5 7 7 6 5
23 24 20 22 24 18 10 20 17 16 8 5 1 1 2 3 1 2 5 4 4 5 5 1 1 4 2 -0 3 5 6 6 4 5 6 5 3 3 2 3 3 3 2 3
22 24 20 9 4 0 7 22 17 12 5 1 2 2 0 3 1 2 0 4 -0 6 -3 -3 3 6 2 5 6 6 6 5 5 5 4 1 3 2 2 3 3 2 1 3
17 10 1 -1 1 16 17 10 8 8 8 5 3 3 1 2 0 -1 -2 -2 -1 -0 -1 1 5 5 10 9 7 7 7 6 5 3 0 2 1 2 2 3 3 3 3 3
8 -0 -2 3 16 9 6 3 5 5 4 6 5 3 3 2 -0 -2 -2 -2 -2 -1 -1 1 3 1 2 3 6 7 8 8 7 7 6 6 6 4 3 3 3 3 4 4
8 8 14 11 6 3 -3 -0 0 1 3 5 5 4 4 3 2 0 -2 -0 -2 -3 2 1 0 -1 1 5 5 5 5 6 6 5 5 7 5 4 4 5 4 4 4 5
10 5 2 2 3 0 2 2 0 3 5 5 5 2 3 4 3 -1 -1 1 -3 0 -3 -5 -0 -1 5 5 4 5 5 4 4 5 6 5 4 3 4 4 4 5 5 3
2 -1 1 1 1 2 4 6 5 6 6 7 5 2 3 3 3 0 1 -2 -3 -4 -2 -6 -3 5 5 5 5 6 4 4 6 4 4 3 4 3 3 3 4 6 4 4
-2 0 1 3 5 4 4 6 6 6 7 6 3 2 2 1 2 1 -1 -5 -10 -4 -4 -1 5 6 4 5 5 4 4 5 5 4 4 3 3 3 2 2 4 5 5 4
5 5 3 5 2 2 4 4 4 6 7 6 4 -1 -2 0 -1 -5 -1 -1 -5 -2 2 6 6 6 6 5 4 4 6 5 3 4 3 2 2 2 3 3 0 3 4 4
1 3 6 4 4 4 5 6 6 7 6 5 2 -3 -6 -1 -9 -5 -1 -1 1 4 5 7 7 7 7 5 5 5 4 4 4 4 3 3 3 4 3 2 0 4 2 4
Wind_Speed
23 24 24 25 22 22 7 2 3 14 12 9 5 5 5 9 10 12 6 3 5 4 8 5 4 7 8 17 18 16 5 6 9 6 13 12 30 15 8 4 14 8 7 4
24 26 26 24 19 14 3 3 3 10 9 7 7 5 3 7 11 9 9 7 7 6 5 6 3 8 9 20 22 22 11 5 11 4 9 16 14 31 20 10 7 9 2 6
25 28 28 26 20 13 4 4 4 10 11 4 5 4 7 8 10 4 7 4 5 9 5 5 6 12 7 15 17 21 5 8 1 13 6 5 15 31 30 14 5 7 14 21
28 28 31 29 23 14 4 7 5 1 8 12 13 3 4 7 9 6 11 3 7 5 4 8 6 6 10 7 18 14 5 7 11 15 11 21 30 33 33 37 25 9 16 22
28 29 32 35 31 9 8 4 3 6 5 5 5 11 7 7 6 3 7 7 15 4 2 3 10 10 2 2 12 13 9 3 8 9 13 11 34 30 27 24 20 22 22 17
27 31 32 34 32 10 6 4 4 7 9 5 4 5 6 4 3 5 7 5 6 6 3 6 14 12 9 4 9 13 7 5 4 0 6 8 10 26 19 13 23 7 13 5
27 29 31 29 30 15 5 4 3 6 6 6 3 3 3 7 6 4 5 3 1 2 10 1 4 6 1 3 1 6 10 4 2 3 4 10 5 12 9 6 10 10 8 8
27 26 28 27 22 22 11 4 4 6 7 2 3 8 6 8 5 4 5 3 5 9 2 1 4 7 6 9 12 16 15 2 8 7 12 4 5 13 7 8 7 6 7 9
24 25 24 26 23 11 8 13 4 8 10 12 4 4 4 7 10 8 4 4 10 6 5 7 8 9 5 10 25 17 15 22 10 6 8 7 9 17 7 1 3 6 6 10
22 22 22 23 20 15 12 9 6 10 10 2 2 6 5 2 2 4 5 11 15 7 7 8 9 6 2 9 17 14 16 12 18 13 5 0 9 18 3 4 8 14 7 11
21 19 20 20 18 15 10 5 10 7 8 3 2 2 4 3 3 7 7 3 7 10 9 5 3 6 6 4 4 8 8 10 9 6 6 5 6 9 7 8 10 10 13 10
20 18 16 19 19 12 6 7 5 10 12 5 3 3 2 1 2 1 6 4 1 2 5 4 4 6 4 5 9 4 6 4 5 2 4 5 7 8 9 7 12 11 12 17
19 16 13 16 19 16 8 6 2 7 7 5 4 4 2 3 3 3 4 2 1 2 1 4 4 9 3 3 4 9 5 1 4 9 2 14 21 4 7 9 13 15 15 17
17 15 11 13 15 18 10 8 4 5 5 6 1 1 2 1 4 2 1 2 1 2 1 4 5 5 1 2 2 7 7 2 9 9 7 18 2 12 18 16 14 15 16 16
14 15 8 6 7 13 16 10 7 4 2 5 4 2 4 1 2 5 1 2 2 2 3 6 4 2 2 2 2 8 9 11 9 9 16 11 21 23 18 16 19 18 19 17
9 13 10 9 2 3 1 3 3 11 3 5 3 1 7 11 6 6 6 4 3 3 4 3 2 1 2 5 4 1 9 11 14 13 17 21 23 16 13 14 18 20 17 16
7 7 10 16 15 8 9 5 7 13 2 3 4 4 6 10 4 5 6 4 3 3 3 3 2 2 1 4 7 19 17 15 18 14 18 21 7 21 22 20 18 18 18 17
4 2 4 6 7 7 6 7 14 4 8 9 6 7 6 12 8 8 8 8 3 7 3 2 3 1 3 5 16 17 16 16 12 17 15 19 21 19 19 16 18 20 18 17
2 2 3 3 6 5 3 7 8 13 11 6 5 11 8 13 7 5 7 5 4 2 4 3 1 2 5 9 16 19 19 15 22 21 17 17 17 18 18 17 17 16 18 18
3 3 3 5 4 5 3 5 7 11 10 8 5 1 6 8 7 5 9 4 4 2 2 2 2 6 2 5 13 16 18 18 19 23 27 26 25 23 21 18 16 16 16 17
3 4 3 2 7 4 7 8 9 8 7 8 5 2 9 3 5 5 4 4 5 3 3 3 1 3 12 13 17 16 17 16 16 15 17 19 19 19 21 19 18 18 17 15
3 5 4 5 11 11 8 8 6 8 6 10 10 8 3 4 1 3 5 4 3 3 5 2 2 5 11 25 26 24 23 22 22 21 23 19 18 20 21 17 17 15 17 15
4 6 7 8 11 13 8 12 7 11 12 7 12 12 6 4 4 3 4 4 4 6 4 3 0 13 25 25 25 26 24 24 24 23 20 20 21 19 19 20 18 17 14 16
8 7 10 9 8 10 3 8 9 8 7 16 13 5 4 4 5 3 6 5 2 9 7 5 18 28 29 26 25 25 27 26 23 23 23 23 21 21 20 19 18 18 16 17
6 7 7 6 1 4 8 7 7 5 5 11 6 3 2 4 4 6 5 10 7 4 8 17 26 30 28 29 28 28 27 24 23 23 22 22 22 20 21 20 21 18 16 17
6 9 6 2 4 15 12 8 10 5 12 0 1 4 5 7 6 8 4 7 4 12 21 26 27 29 29 28 28 27 23 24 24 22 23 22 22 22 21 21 20 16 19 16
6 5 4 4 1 4 7 5 12 11 6 8 4 7 5 7 7 8 3 6 18 27 28 23 24 27 27 25 26 24 25 25 22 23 22 22 23 19 19 19 23 23 16 12
Wind_Direction
5 0 357 355 353 352 35 26 14 343 353 43 36 51 7 1 358 11 7 27 347 310 328 306 317 20 19 10 351 331 274 292 301 6 128 73 67 11 353 338 330 19 118 75
10 7 2 358 355 7 344 56 4 348 34 60 28 345 37 41 13 19 12 4 355 351 294 315 18 345 358 10 2 350 356 6 315 343 266 19 29 359 349 280 269 31 31 123
15 12 7 3 0 3 86 58 17 21 47 54 79 20 3 348 7 71 351 11 26 351 351 4 320 340 342 354 354 3 43 18 156 109 120 319 19 10 8 16 34 86 71 109
23 17 14 12 8 12 82 37 65 340 7 28 56 71 23 356 4 14 16 21 24 323 316 333 8 351 328 338 354 357 58 101 97 131 137 59 36 24 15 33 26 65 109 91
27 24 18 14 13 16 74 85 99 50 35 25 30 21 21 4 333 323 348 355 333 353 360 23 311 344 296 328 331 355 360 203 183 216 237 31 36 21 25 27 21 55 69 57
31 29 25 21 15 31 81 32 74 103 3 27 49 2 327 315 330 247 245 286 328 326 313 277 283 243 250 282 335 343 354 339 195 335 284 264 14 7 20 38 33 21 51 3
34 33 32 29 27 44 94 54 103 82 36 52 34 320 298 288 283 256 288 212 268 261 320 319 80 82 103 59 168 12 339 340 302 26 27 49 319 14 349 43 43 30 41 14
34 33 34 34 40 48 75 27 78 103 78 325 336 334 312 308 296 254 258 263 242 322 351 108 16 360 12 342 354 8 17 312 48 77 58 111 360 351 355 2 7 355 340 348
31 31 30 35 37 54 77 41 63 87 115 5 277 327 342 346 343 350 276 308 309 3 53 52 35 32 320 343 340 337 9 27 71 43 69 50 340 331 334 245 353 345 320 330
30 28 29 31 38 53 82 47 38 85 99 5 73 21 342 324 360 295 315 340 355 6 49 55 46 34 314 12 3 334 343 2 35 32 83 93 313 329 336 49 318 329 328 313
28 30 29 31 34 45 70 55 23 96 97 72 162 149 4 344 24 12 326 335 10 21 54 66 42 59 28 29 321 347 353 355 6 352 34 11 0 358 49 294 301 298 306 297
26 31 31 32 33 41 68 63 27 62 83 114 184 190 218 194 236 286 14 99 347 26 76 65 109 60 70 43 25 324 17 27 306 317 287 323 312 281 270 262 274 289 293 298
26 34 42 42 38 44 77 94 24 67 101 73 55 359 327 217 200 188 36 45 148 50 203 133 111 77 127 47 55 349 346 175 294 339 8 318 313 259 272 275 269 279 277 281
26 36 58 55 55 56 69 73 351 73 107 104 65 290 350 172 148 103 88 108 134 107 62 78 80 104 229 141 107 33 340 286 310 277 308 326 355 332 321 309 302 289 283 276
29 33 55 52 86 87 77 77 47 73 84 125 133 320 7 267 266 298 220 13 19 41 51 53 68 116 117 67 97 32 354 340 336 307 318 317 307 313 318 309 307 306 306 303
48 36 31 11 302 183 327 28 15 28 56 109 90 292 12 7 5 17 27 31 49 72 82 95 96 207 91 54 348 305 336 308 309 303 313 312 301 305 311 300 303 308 303 293
80 53 54 54 60 71 60 72 302 334 73 76 69 23 12 352 12 16 3 17 35 66 100 71 106 59 59 77 2 328 331 322 313 309 319 323 305 319 321 319 318 312 304 300
102 96 72 62 84 82 45 351 9 63 88 53 39 332 0 7 3 354 4 349 7 29 104 79 52 68 69 46 332 319 316 325 315 322 310 295 299 311 316 316 322 326 324 324
112 106 74 51 36 42 346 324 42 49 59 85 64 357 325 355 15 349 334 352 26 334 53 38 5 84 59 328 324 329 325 322 315 319 315 317 316 322 321 321 321 321 321 323
47 20 34 32 355 294 330 5 22 30 27 40 73 282 324 356 345 331 349 1 30 32 19 309 79 106 217 292 314 309 310 311 317 327 332 329 326 326 323 315 314 309 307 313
41 46 61 298 323 41 35 30 30 354 31 12 3 37 334 5 342 311 19 338 341 7 354 8 68 53 344 337 337 337 325 310 308 304 297 305 306 310 315 310 316 316 312 307
88 106 79 34 26 33 46 12 358 23 1 347 349 330 305 312 61 328 351 325 347 325 332 16 42 347 334 348 343 341 338 334 331 328 320 313 323 318 311 302 305 304 308 303
56 54 49 27 360 30 29 357 338 333 343 353 345 327 339 325 13 309 340 347 320 309 6 360 316 335 342 339 337 333 333 333 327 325 329 324 318 322 319 312 305 294 294 297
58 54 35 44 10 8 320 310 293 286 294 324 327 294 326 320 331 327 335 331 345 1 353 330 334 337 335 335 333 333 332 330 326 332 328 326 324 323 321 315 310 306 291 294
70 59 58 56 218 305 284 287 301 304 295 327 324 297 336 335 344 8 345 4 341 350 335 320 329 330 331 330 331 331 328 327 331 328 327 328 325 323 320 318 316 305 297 293
67 50 87 43 22 358 358 339 331 322 335 343 39 350 15 22 345 5 357 337 288 319 318 318 320 323 324 326 327 324 326 329 325 327 327 324 323 321 316 312 316 308 309 294
61 78 43 97 104 318 319 321 326 329 6 14 10 36 349 305 339 348 2 350 312 310 309 312 319 320 322 324 322 329 329 326 325 325 323 321 316 311 312 315 318 319 332 329